Previsão horária em Abilene

Hoje, 20 Janeiro, Quarta-feira

Tempo Temperatura Precipitação Vento Pressão Humidade
00:00 +7°C° 0 mm 3 m/s 725 mmHg 50%
01:00 +7°C° 0 mm 2 m/s 725 mmHg 51%
02:00 +7°C° 0 mm 2 m/s 725 mmHg 52%
03:00 +6°C° 0.3 mm 2 m/s 724 mmHg 58%
04:00 +6°C° 0.3 mm 2 m/s 724 mmHg 63%
05:00 +6°C° 0.3 mm 1 m/s 723 mmHg 69%
06:00 +6°C° 0.9 mm 1 m/s 723 mmHg 75%
07:00 +6°C° 0.9 mm 1 m/s 723 mmHg 81%
08:00 +6°C° 0.9 mm 1 m/s 723 mmHg 87%
09:00 +6°C° 0.2 mm 1 m/s 723 mmHg 87%
10:00 +5°C° 0.2 mm 2 m/s 722 mmHg 87%
11:00 +5°C° 0.2 mm 3 m/s 722 mmHg 87%
12:00 +5°C° 0 mm 4 m/s 721 mmHg 86%
13:00 +6°C° 0 mm 4 m/s 720 mmHg 84%
14:00 +7°C° 0 mm 4 m/s 720 mmHg 83%
15:00 +7°C° 0 mm 4 m/s 719 mmHg 84%
16:00 +8°C° 0 mm 3 m/s 719 mmHg 85%
17:00 +8°C° 0 mm 3 m/s 718 mmHg 85%
18:00 +7°C° 0 mm 4 m/s 718 mmHg 85%
19:00 +7°C° 0 mm 4 m/s 718 mmHg 85%
20:00 +7°C° 0 mm 5 m/s 718 mmHg 85%
21:00 +8°C° 0 mm 6 m/s 718 mmHg 85%
22:00 +8°C° 0 mm 6 m/s 717 mmHg 84%
23:00 +9°C° 0 mm 7 m/s 717 mmHg 84%

Amanhã, 21 Janeiro, Quinta-feira

Tempo Temperatura Precipitação Vento Pressão Humidade
00:00 +9°C° 0 mm 6 m/s 716 mmHg 84%
01:00 +9°C° 0 mm 6 m/s 716 mmHg 84%
02:00 +9°C° 0 mm 6 m/s 715 mmHg 85%
03:00 +9°C° 0 mm 5 m/s 715 mmHg 83%
04:00 +10°C° 0 mm 5 m/s 715 mmHg 82%
05:00 +11°C° 0 mm 4 m/s 715 mmHg 80%
06:00 +11°C° 0 mm 4 m/s 715 mmHg 82%
07:00 +12°C° 0 mm 5 m/s 714 mmHg 85%
08:00 +12°C° 0 mm 5 m/s 714 mmHg 87%
09:00 +13°C° 0 mm 5 m/s 714 mmHg 85%
10:00 +14°C° 0 mm 6 m/s 714 mmHg 83%
11:00 +15°C° 0 mm 6 m/s 714 mmHg 80%
12:00 +16°C° 0 mm 7 m/s 713 mmHg 80%
13:00 +16°C° 0 mm 7 m/s 713 mmHg 80%
14:00 +17°C° 0 mm 7 m/s 712 mmHg 79%
15:00 +16°C° 0 mm 6 m/s 711 mmHg 82%
16:00 +16°C° 0 mm 5 m/s 711 mmHg 85%
17:00 +17°C° 0 mm 4 m/s 711 mmHg 88%
18:00 +15°C° 0.1 mm 4 m/s 711 mmHg 89%
19:00 +15°C° 0.1 mm 4 m/s 711 mmHg 90%
20:00 +14°C° 0.1 mm 5 m/s 711 mmHg 91%
21:00 +14°C° 0 mm 5 m/s 711 mmHg 91%
22:00 +14°C° 0 mm 5 m/s 711 mmHg 91%
23:00 +14°C° 0 mm 4 m/s 711 mmHg 91%

Depois de amanhã, 22 Janeiro, Sexta-feira

Tempo Temperatura Precipitação Vento Pressão Humidade
00:00 +14°C° 0 mm 4 m/s 711 mmHg 89%
01:00 +13°C° 0 mm 4 m/s 711 mmHg 88%
02:00 +13°C° 0 mm 4 m/s 711 mmHg 86%
03:00 +12°C° 0 mm 4 m/s 711 mmHg 87%
04:00 +11°C° 0 mm 4 m/s 712 mmHg 88%
05:00 +11°C° 0 mm 4 m/s 712 mmHg 89%
06:00 +11°C° 0 mm 3 m/s 713 mmHg 90%
07:00 +10°C° 0 mm 3 m/s 713 mmHg 91%
08:00 +10°C° 0 mm 3 m/s 714 mmHg 91%
09:00 +11°C° 0 mm 3 m/s 714 mmHg 90%
10:00 +11°C° 0 mm 3 m/s 715 mmHg 88%
11:00 +12°C° 0 mm 3 m/s 715 mmHg 87%
12:00 +11°C° 0 mm 3 m/s 715 mmHg 87%
13:00 +11°C° 0 mm 3 m/s 715 mmHg 87%
14:00 +11°C° 0 mm 3 m/s 714 mmHg 87%
15:00 +11°C° 0 mm 3 m/s 715 mmHg 87%
16:00 +10°C° 0 mm 3 m/s 715 mmHg 87%
17:00 +9°C° 0 mm 3 m/s 715 mmHg 88%
18:00 +9°C° 0 mm 3 m/s 715 mmHg 88%
19:00 +9°C° 0 mm 3 m/s 716 mmHg 88%
20:00 +9°C° 0 mm 3 m/s 716 mmHg 88%
21:00 +8°C° 0 mm 3 m/s 716 mmHg 91%
22:00 +8°C° 0 mm 3 m/s 716 mmHg 93%
23:00 +7°C° 0 mm 3 m/s 716 mmHg 96%

23 Janeiro, Sábado

Tempo Temperatura Precipitação Vento Pressão Humidade
00:00 +8°C° 0 mm 3 m/s 716 mmHg 96%
01:00 +7°C° 0 mm 4 m/s 715 mmHg 95%
02:00 +8°C° 0 mm 5 m/s 715 mmHg 95%
03:00 +8°C° 0 mm 5 m/s 715 mmHg 93%
04:00 +10°C° 0 mm 4 m/s 715 mmHg 92%
05:00 +10°C° 0 mm 4 m/s 715 mmHg 90%
06:00 +10°C° 0 mm 4 m/s 715 mmHg 89%
07:00 +10°C° 0 mm 5 m/s 716 mmHg 88%
08:00 +10°C° 0 mm 5 m/s 716 mmHg 87%
09:00 +12°C° 0 mm 5 m/s 716 mmHg 83%
10:00 +13°C° 0 mm 6 m/s 715 mmHg 79%
11:00 +14°C° 0 mm 6 m/s 715 mmHg 76%
12:00 +14°C° 0 mm 6 m/s 715 mmHg 75%
13:00 +15°C° 0 mm 6 m/s 714 mmHg 74%
14:00 +15°C° 0 mm 6 m/s 713 mmHg 73%
15:00 +15°C° 0 mm 6 m/s 713 mmHg 76%
16:00 +15°C° 0 mm 6 m/s 713 mmHg 78%
17:00 +15°C° 0 mm 5 m/s 712 mmHg 81%
18:00 +14°C° 0.1 mm 6 m/s 713 mmHg 85%
19:00 +14°C° 0.1 mm 6 m/s 713 mmHg 89%
20:00 +14°C° 0.1 mm 7 m/s 713 mmHg 93%
21:00 +14°C° 0 mm 6 m/s 713 mmHg 94%
22:00 +14°C° 0 mm 6 m/s 713 mmHg 94%
23:00 +14°C° 0 mm 5 m/s 713 mmHg 95%

24 Janeiro, Domingo

Tempo Temperatura Precipitação Vento Pressão Humidade
00:00 +14°C° 0 mm 6 m/s 712 mmHg 94%
01:00 +15°C° 0 mm 6 m/s 712 mmHg 93%
02:00 +15°C° 0 mm 6 m/s 712 mmHg 93%
03:00 +15°C° 0 mm 5 m/s 712 mmHg 93%
04:00 +15°C° 0 mm 5 m/s 712 mmHg 93%
05:00 +15°C° 0 mm 4 m/s 712 mmHg 93%
06:00 +16°C° 0 mm 3 m/s 712 mmHg 91%
07:00 +16°C° 0 mm 3 m/s 713 mmHg 89%
08:00 +17°C° 0 mm 2 m/s 713 mmHg 88%
09:00 +18°C° 0.1 mm 3 m/s 713 mmHg 83%
10:00 +19°C° 0.1 mm 5 m/s 713 mmHg 78%
11:00 +21°C° 0.1 mm 6 m/s 713 mmHg 73%
12:00 +22°C° 0 mm 5 m/s 712 mmHg 68%
13:00 +22°C° 0 mm 5 m/s 711 mmHg 62%
14:00 +23°C° 0 mm 4 m/s 710 mmHg 56%
15:00 +22°C° 0.1 mm 4 m/s 710 mmHg 59%
16:00 +21°C° 0.1 mm 4 m/s 710 mmHg 62%
17:00 +20°C° 0.1 mm 3 m/s 710 mmHg 65%
18:00 +20°C° 0 mm 4 m/s 709 mmHg 70%
19:00 +19°C° 0 mm 4 m/s 709 mmHg 76%
20:00 +18°C° 0 mm 4 m/s 709 mmHg 81%
21:00 +17°C° 0.2 mm 5 m/s 709 mmHg 84%
22:00 +17°C° 0.2 mm 5 m/s 708 mmHg 88%
23:00 +17°C° 0.2 mm 5 m/s 708 mmHg 91%

25 Janeiro, Segunda-feira

Tempo Temperatura Precipitação Vento Pressão Humidade
00:00 +17°C° 0.2 mm 5 m/s 708 mmHg 86%
01:00 +19°C° 0.2 mm 6 m/s 708 mmHg 81%
02:00 +19°C° 0.2 mm 6 m/s 707 mmHg 76%
03:00 +17°C° 0 mm 6 m/s 707 mmHg 70%
04:00 +15°C° 0 mm 7 m/s 708 mmHg 64%
05:00 +12°C° 0 mm 8 m/s 708 mmHg 58%
06:00 +12°C° 0 mm 8 m/s 709 mmHg 54%
07:00 +12°C° 0 mm 8 m/s 709 mmHg 49%
08:00 +12°C° 0 mm 9 m/s 710 mmHg 45%
09:00 +13°C° 0 mm 9 m/s 710 mmHg 38%
10:00 +14°C° 0 mm 10 m/s 711 mmHg 32%
11:00 +16°C° 0 mm 11 m/s 711 mmHg 26%
12:00 +16°C° 0 mm 10 m/s 710 mmHg 25%
13:00 +16°C° 0 mm 9 m/s 710 mmHg 25%
14:00 +17°C° 0 mm 9 m/s 709 mmHg 25%
15:00 +16°C° 0 mm 7 m/s 709 mmHg 27%
16:00 +15°C° 0 mm 6 m/s 709 mmHg 30%
17:00 +13°C° 0 mm 5 m/s 709 mmHg 33%
18:00 +13°C° 0 mm 4 m/s 710 mmHg 34%
19:00 +12°C° 0 mm 4 m/s 710 mmHg 35%
20:00 +11°C° 0 mm 3 m/s 711 mmHg 35%
21:00 +11°C° 0 mm 3 m/s 710 mmHg 35%
22:00 +10°C° 0 mm 3 m/s 710 mmHg 35%
23:00 +10°C° 0 mm 2 m/s 710 mmHg 34%
Mostrar mais